CAPE
24 29 16 7 2 11 12 10 27 33 21 0 0 0 11 5 0 0 19 14 37 28 21 18 19 16 11 5 18 16 16 18 19
12 7 12 9 7 4 4 15 7 20 20 0 0 0 10 0 0 0 1 20 38 29 18 10 6 6 7 12 11 21 21 21 22
8 9 8 7 8 8 6 5 2 12 3 0 0 0 0 0 0 1 7 38 19 19 22 15 14 14 15 15 11 15 17 17 10
2 2 2 1 0 0 0 0 0 0 0 0 0 0 0 0 0 0 3 23 20 12 13 14 14 23 8 12 6 12 29 25 16
0 0 0 0 0 0 0 0 0 0 0 0 0 0 0 0 0 0 0 12 13 12 3 10 11 9 10 5 14 9 2 9 11
0 0 0 0 0 0 0 0 0 0 0 0 0 0 0 0 0 0 3 7 7 5 5 9 6 7 12 12 4 8 7 8 8
0 0 0 0 0 0 0 0 0 0 0 0 0 0 0 0 0 0 0 1 5 5 4 4 3 2 6 9 4 5 7 6 6
0 0 0 0 0 0 0 0 0 0 0 0 0 0 0 0 0 0 0 0 0 1 2 4 6 8 6 3 2 2 7 3 7
0 0 0 0 0 0 0 0 0 0 0 0 0 0 0 0 0 0 0 0 0 0 0 0 2 2 0 0 0 0 0 2 1
0 0 0 0 0 0 0 0 0 0 0 0 0 0 0 0 0 0 0 0 0 0 0 0 0 0 0 0 0 0 0 0 0
0 0 0 0 0 0 0 0 0 0 0 0 0 0 0 0 0 0 0 0 0 0 0 1 0 0 0 0 0 0 0 0 0
0 0 0 0 0 0 0 0 0 0 0 0 0 0 0 0 0 0 0 0 0 0 0 0 0 0 0 0 0 0 0 0 0
0 0 0 0 0 0 0 0 0 0 0 0 0 0 0 0 0 0 0 0 0 0 0 0 0 0 0 0 0 0 0 0 0
0 0 0 0 0 0 0 0 0 0 0 0 0 0 0 0 0 0 0 0 0 0 0 0 0 0 0 0 0 0 0 0 0
0 0 0 0 0 0 0 0 0 0 0 0 0 0 0 0 0 0 0 0 0 0 0 0 0 0 0 0 0 0 0 0 0
0 0 0 0 0 0 0 0 0 0 0 0 0 0 0 0 0 0 0 0 0 0 0 0 0 0 0 0 0 0 0 0 0
0 0 0 0 0 0 0 0 0 0 0 0 0 0 0 0 0 0 0 0 0 0 0 0 0 0 0 0 0 0 0 0 0
0 0 0 0 0 0 0 0 0 0 0 0 0 0 0 0 0 0 0 0 0 0 0 0 0 0 0 0 0 0 0 0 0
0 0 0 0 0 0 0 0 0 0 0 0 0 0 0 0 0 0 0 0 0 0 0 0 0 0 0 0 0 0 0 0 0
0 0 0 0 0 0 0 0 0 0 0 0 0 0 0 0 0 0 0 0 0 0 0 0 0 0 0 0 0 0 0 0 0
CIN
-1 0 0 0 0 0 0 0 0 0 0 0 0 0 -3 -12 0 0 -11 -11 0 0 -2 0 -1 -1 0 0 0 0 0 0 0
-2 -2 0 0 0 0 0 -1 -1 -1 0 0 0 0 -4 0 0 0 -15 -6 0 0 -1 -1 0 0 0 0 0 0 0 0 0
0 0 0 0 0 0 0 0 0 0 0 0 0 0 0 0 0 -18 -7 -4 -2 0 -1 -1 0 0 0 0 0 0 0 0 0
0 0 0 0 0 0 0 0 0 0 0 0 0 0 0 0 0 0 -8 -1 -1 0 0 0 -1 -1 -1 -1 0 0 0 0 0
0 0 0 0 0 0 0 0 0 0 0 0 0 0 0 0 0 0 0 0 0 -1 0 0 -1 0 0 0 -1 -2 0 0 0
0 0 0 0 0 0 0 0 0 0 0 0 0 0 0 0 0 0 0 -1 0 0 0 -1 -1 -1 -1 0 0 0 0 0 -1
0 0 0 0 0 0 0 0 0 0 0 0 0 0 0 0 0 0 0 0 0 0 0 -1 -1 0 0 0 0 0 0 0 0
0 0 0 0 0 0 0 0 0 0 0 0 0 0 0 0 0 0 0 0 0 0 0 0 0 0 0 0 0 0 0 0 0
0 0 0 0 0 0 0 0 0 0 0 0 0 0 0 0 0 0 0 0 0 0 0 0 0 0 0 0 0 0 0 0 0
0 0 0 0 0 0 0 0 0 0 0 0 0 0 0 0 0 0 0 0 0 0 0 0 0 0 0 0 0 0 0 0 0
0 0 0 0 0 0 0 0 0 0 0 0 0 0 0 0 0 0 0 0 0 0 0 0 0 0 0 0 0 0 0 0 0
0 0 0 0 0 0 0 0 0 0 0 0 0 0 0 0 0 0 0 0 0 0 0 0 0 0 0 0 0 0 0 0 0
0 0 0 0 0 0 0 0 0 0 0 0 0 0 0 0 0 0 0 0 0 0 0 0 0 0 0 0 0 0 0 0 0
0 0 0 0 0 0 0 0 0 0 0 0 0 0 0 0 0 0 0 0 0 0 0 0 0 0 0 0 0 0 0 0 0
0 0 0 0 0 0 0 0 0 0 0 0 0 0 0 0 0 0 0 0 0 0 0 0 0 0 0 0 0 0 0 0 0
0 0 0 0 0 0 0 0 0 0 0 0 0 0 0 0 0 0 0 0 0 0 0 0 0 0 0 0 0 0 0 0 0
0 0 0 0 0 0 0 0 0 0 0 0 0 0 0 0 0 0 0 0 0 0 0 0 0 0 0 0 0 0 0 0 0
0 0 0 0 0 0 0 0 0 0 0 0 0 0 0 0 0 0 0 0 0 0 0 0 0 0 0 0 0 0 0 0 0
0 0 0 0 0 0 0 0 0 0 0 0 0 0 0 0 0 0 0 0 0 0 0 0 0 0 0 0 0 0 0 0 0
0 0 0 0 0 0 0 0 0 0 0 0 0 0 0 0 0 0 0 0 0 0 0 0 0 0 0 0 0 0 0 0 0
Wind_Speed
12 15 13 14 14 14 15 15 14 14 13 11 11 14 13 12 8 7 12 8 13 14 14 14 14 14 15 14 16 17 17 17 17
11 11 12 13 13 12 14 12 11 12 12 10 10 14 14 8 8 7 6 8 13 16 12 12 13 15 15 15 16 16 17 16 16
11 11 12 11 11 10 11 11 11 10 10 10 10 12 12 8 8 6 5 13 12 14 12 13 14 15 14 14 15 15 15 15 15
8 9 9 9 9 8 9 9 9 10 10 9 9 9 11 6 5 6 4 12 12 13 12 12 13 13 13 13 13 14 15 14 13
6 8 7 7 7 7 7 7 7 7 7 6 6 8 10 2 8 5 4 10 11 11 10 11 11 11 12 13 13 13 12 12 12
7 7 6 5 5 4 4 4 3 1 3 2 3 5 3 3 5 4 8 9 9 8 8 9 9 10 11 11 11 11 11 11 10
5 6 4 1 1 1 1 1 4 5 3 3 5 2 2 2 5 4 8 7 7 8 7 7 8 9 10 10 9 9 9 8 9
3 3 2 2 5 3 4 5 3 4 1 4 3 1 2 2 3 7 9 6 7 7 7 7 7 7 9 8 8 6 7 7 7
1 1 3 1 1 2 2 1 1 3 3 4 3 3 2 1 3 6 11 8 7 8 8 8 7 7 7 8 7 6 5 4 4
1 2 2 2 1 2 2 2 2 4 3 2 3 3 4 4 3 3 11 10 9 8 10 9 8 8 7 6 6 5 4 2 1
3 2 2 1 2 1 1 2 2 4 3 4 3 2 3 2 4 4 5 12 11 10 10 10 10 9 8 7 6 5 4 3 2
2 1 2 2 1 2 2 3 2 3 4 4 5 3 4 3 4 5 5 6 12 12 11 11 11 10 10 9 8 7 6 5 4
3 2 2 2 3 1 2 2 2 3 3 3 4 3 3 4 4 4 5 5 5 10 12 12 12 12 11 11 10 9 8 7 6
3 2 3 1 2 1 2 2 1 2 4 4 4 4 3 4 3 5 6 6 5 5 12 14 12 13 13 13 12 11 10 9 8
2 2 3 1 2 2 2 2 2 2 3 4 5 5 5 4 4 4 4 6 6 5 5 5 6 13 15 15 14 13 13 12 11
5 3 3 3 3 3 4 2 2 3 3 1 5 5 7 6 5 5 4 4 6 6 5 4 4 6 16 15 16 16 15 15 14
5 5 4 4 2 4 3 2 1 3 2 2 2 4 5 3 5 4 5 6 4 6 7 7 7 6 5 8 15 14 17 17 16
5 5 4 4 3 4 3 3 4 2 4 3 3 3 1 3 2 3 4 5 3 4 6 7 7 7 6 9 12 15 14 17 18
5 5 5 5 3 4 4 4 4 3 4 3 3 3 2 1 4 3 3 4 5 6 4 5 6 7 5 8 12 15 17 16 17
3 4 6 5 4 5 5 5 4 4 3 3 2 2 3 2 2 4 4 2 4 5 5 6 5 6 6 6 7 16 18 17 17
Wind_Direction
59 61 66 65 66 66 66 67 67 70 69 63 51 31 24 67 68 79 76 79 86 87 79 82 83 84 86 87 84 86 85 84 85
70 72 64 65 64 65 64 67 64 61 70 60 43 31 41 68 69 58 75 83 85 84 94 93 93 89 88 89 89 85 87 87 86
63 61 63 61 61 64 64 63 66 65 65 49 34 26 16 89 86 69 63 82 92 88 92 86 92 89 91 92 87 90 86 85 85
71 68 63 61 65 65 59 60 60 58 55 39 22 13 5 92 117 96 68 81 83 95 86 93 88 87 92 89 91 88 89 86 85
87 80 63 61 59 59 65 64 60 61 63 42 7 356 342 20 93 83 97 108 101 91 97 91 93 95 94 92 88 89 87 85 87
102 79 52 56 60 59 64 61 66 83 119 114 302 316 296 45 90 90 112 107 103 109 106 99 101 100 93 89 90 86 87 87 86
106 128 150 131 117 148 128 213 242 229 213 197 236 251 229 68 104 111 116 122 126 126 118 112 111 110 105 95 94 92 84 91 87
177 186 183 201 220 221 217 234 247 242 108 189 221 214 156 161 116 139 128 144 149 144 138 137 131 123 113 107 102 94 90 92 84
118 87 112 160 198 342 270 327 317 279 226 245 232 197 199 198 132 155 154 164 176 165 165 162 155 147 135 126 117 107 98 97 96
258 226 162 142 97 269 324 292 316 295 301 270 209 263 194 199 137 151 165 178 194 198 183 182 175 168 160 151 142 137 133 138 148
237 241 135 277 170 316 322 330 334 311 310 299 318 287 312 161 157 156 176 182 200 206 207 197 192 188 185 178 169 167 161 176 185
232 293 165 220 90 61 302 293 291 321 299 283 280 257 241 232 206 173 172 189 198 212 212 211 203 203 198 192 187 183 180 189 198
321 332 313 188 92 8 334 314 331 302 281 281 287 265 225 243 234 196 177 170 197 209 213 214 214 209 208 203 198 193 192 194 200
187 269 260 227 137 208 242 305 210 291 313 282 262 276 269 237 239 226 193 191 182 190 215 207 217 219 214 210 205 201 198 197 202
204 265 282 326 127 262 282 240 299 225 276 311 308 280 262 239 222 240 219 200 196 206 187 201 208 218 223 218 212 207 203 202 201
182 221 263 224 184 241 238 218 254 302 262 345 304 268 234 231 214 210 225 230 198 194 208 191 204 211 218 226 220 214 209 206 203
185 195 223 245 202 232 250 245 279 291 254 187 284 319 344 319 226 203 205 227 210 198 207 209 209 205 200 208 221 226 218 211 207
208 218 213 228 206 208 233 213 195 228 310 225 170 338 273 322 331 248 215 215 231 233 215 211 211 214 193 204 212 216 225 225 212
219 215 223 242 240 212 217 224 201 170 240 321 239 221 185 322 335 320 253 221 232 240 243 223 227 216 213 201 197 207 215 223 226
257 231 226 231 233 239 219 228 218 200 199 216 270 269 257 242 192 282 309 339 252 233 224 219 227 231 222 221 207 200 207 215 223